Location: *
(53.9002°N, 27.5624°E)
Time: 05:37:54
(UTC+00:00)

Cosmos 1867 - Pass Details

Date: 12 November 2019
Orbit: 776 x 799 km, 65.0° (Epoch: 14 December)

Event Time Altitude Azimuth Distance (km) Brightness Sun altitude
Rises 17:13:45 0° 238° (WSW) 3,292 7.6 -26.0°
Reaches altitude 10° 17:16:12 10° 242° (WSW) 2,368 6.7 -26.3°
Maximum altitude 17:21:35 59° 322° (NW) 924 4.0 -27.1°
Enters shadow 17:22:41 49° 7° (N) 1,026 4.0 -27.3°
